Regional Weather Roundup
Issued by NWS

Home | Current Version | Previous Version | Graphics & Text | Print | Product List | Glossary On
Versions: 1 2 3 4 5 6 7 8 9 10 11 12 13 14 15 16 17 18 19 20 21 22 23 24 25 26 27 28 29 30 31 32 33 34 35 36 37 38 39 40 41 42 43 44 45 46 47 48 49 50
000
ASUS45 KBOU 251307
RWRCO

WEATHER ROUNDUP FOR COLORADO
NATIONAL WEATHER SERVICE DENVER/BOULDER CO
700 AM MDT SAT APR 25 2015

NOTE: "FAIR" INDICATES FEW OR NO CLOUDS BELOW 12000 FEET WITH NO
SIGNIFICANT WEATHER AND/OR OBSTRUCTIONS TO VISIBILITY.

COZ001>005-013-030-031-251400-
...NORTHWEST COLORADO...

CITY           SKY/WX    TMP DP  RH WIND       PRES   REMARKS
CRAIG          CLOUDY    43  37  79 W6        29.83R
HAYDEN         CLOUDY    41  34  75 CALM      29.83R
MEEKER         CLOUDY    44  37  76 E3        29.82S
MOUNT WERNER   NOT AVBL
STEAMBOAT SPGS CLOUDY    38  33  80 E3        29.83S
WALDEN         MOCLDY    34  32  93 S9G18     29.85R WCI  26
$$

COZ006>008-011-251400-
...WEST CENTRAL VALLEYS...

CITY           SKY/WX    TMP DP  RH WIND       PRES   REMARKS
GRAND JUNCTION CLOUDY    48  36  63 NW10      29.81R
MONTROSE       CLOUDY    47  35  63 SE12      29.87R
EAGLE          CLOUDY    32  28  86 CALM      29.90R
RIFLE          CLOUDY    42  33  70 E3        29.83S
DELTA          CLOUDY    47  35  64 MISG      29.85R
NUCLA          CLOUDY    46  34  61 S9        29.90S
$$

COZ017>023-064>068-251400-
...SOUTHWEST COLORADO...

CITY           SKY/WX    TMP DP  RH WIND       PRES   REMARKS
DURANGO        CLOUDY    39  37  92 E5        29.95S
CORTEZ         LGT RAIN  44  40  85 CALM      29.93S
PAGOSA SPRINGS CLOUDY    36  35  97 NE5       29.99S
TELLURIDE      CLOUDY    33  33  99 SE6       29.97S WCI  27
WOLF CREEK PAS NOT AVBL
$$

COZ009-010-012-014-032>034-037-058>063-251400-
...CENTRAL COLORADO...

CITY           SKY/WX    TMP DP  RH WIND       PRES   REMARKS
ASPEN          MOCLDY    34  26  72 CALM      29.87R
BUENA VISTA    MOCLDY    33  25  73 CALM      29.91R
COPPER MTN     PTCLDY    28  18  64 SW10      29.98S WCI  19
BERTHOUD PASS  FAIR      21  12  68 W18G31    29.98R WCI   6
COTTONWOOD PAS MOCLDY    36  23  60 S5        29.94R
GUNNISON       MOCLDY    30  25  80 CALM      29.98R
KREMMLING      MOCLDY    30  27  86 S3        29.89R
LEADVILLE      MOCLDY    24  17  74 CALM      29.93R
MONARCH PASS   FOG       25  23  93 MISG      30.09R VSB<1/4
SALIDA         MOCLDY    42  25  52 S7        29.97R
SUNLIGHT       LGT SNOW  30  30 100 CALM      29.97R
WILKERSON PASS PTCLDY    27  18  69 W9G17     29.97R WCI  17
$$

COZ069>075-251400-
...SAN LUIS VALLEY/SANGRE DE CRISTO MOUNTAINS...

CITY           SKY/WX    TMP DP  RH WIND       PRES   REMARKS
ALAMOSA        CLEAR     27  24  89 SE5       29.93S WCI  22
LA VETA PASS   PTCLDY    28  25  86 SW9G24    29.97R WCI  20
SAGUACHE       PTCLDY    23  21  93 CALM      29.95S
$$

COZ035-036-038>040-251400-
...NORTHERN COLORADO FRONT RANGE...

CITY           SKY/WX    TMP DP  RH WIND       PRES   REMARKS
DENVER INTL AP PTCLDY    44  29  55 S12       29.74R
DMNS CITY PARK   N/A     46  26  46 S6        29.74S
AURORA         PTCLDY    43  28  55 S10       29.76R
FRONT RANGE AP PTCLDY    41  30  65 S8        29.76
ERIE MUNI ARPT CLEAR     36  32  88 S5        29.73S
BOULDER MUN AP CLEAR     43  32  65 SW5       29.73R
CENTENNIAL     PTCLDY    41  28  60 SE5       29.76R
BROOMFIELD     PTCLDY    45  28  53 W8        29.75R
FORT COLLINS   CLEAR     39  32  75 N8        29.75R
LONGMONT       CLEAR     42  33  71 CALM      29.75R
$$

COZ041-046-047-076>085-087-088-251400-
...PIKES PEAK/PALMER DIVIDE AND SOUTHERN FOOTHILLS...

CITY           SKY/WX    TMP DP  RH WIND       PRES   REMARKS
COLO. SPRINGS  PTCLDY    47  22  37 NW9       29.79R
A. F. ACADEMY  PTCLDY    50  19  28 VRB6      29.79R
ELLICOTT       CLEAR    N/A N/A N/A NE5       29.78R
FALCON         CLEAR     43  22  42 W9        29.81S
FORT CARSON    PTCLDY    43  27  54 W6        29.77R
LIMON          CLEAR     36  31  82 N6        29.77R
MONUMENT HILL  CLEAR     39  23  52 SW8       29.80S
TRINIDAD       CLEAR     43  24  47 W15       29.82R
$$

COZ042>045-048>051-090-091-251400-
...NORTHEAST COLORADO...

CITY           SKY/WX    TMP DP  RH WIND       PRES   REMARKS
GREELEY ARPT   CLEAR     39  30  70 CALM      29.74R
AKRON          SUNNY     44  37  76 W13       29.72R
BURLINGTON     SUNNY     46  38  73 W13       29.70R
WRAY           MOSUNNY   45  41  88 NW6       29.68R
STERLING       SUNNY     43  37  81 CALM      29.70R
HOLYOKE        MOSUNNY   45  41  87 NW8       29.69R
FORT MORGAN    CLEAR     39  35  84 CALM      29.74R
$$

COZ086-089-092>099-251400-
...SOUTHEAST COLORADO...

CITY           SKY/WX    TMP DP  RH WIND       PRES   REMARKS
PUEBLO         CLEAR     38  32  79 NE6       29.76R
LA JUNTA       CLEAR     45  30  55 CALM      29.75R
LAMAR          SUNNY     46  36  68 SW6       29.73R
SPRINGFIELD      N/A     48  29  47 NW15      29.74R
$$



USA.gov is the U.S. government's official web portal to all federal, state and local government web resources and services.